Location: ???????
(41.1452°N, 22.7436°E)
Time: 16:03:06
(UTC+00:00)

Daily predictions for brighter satellites

Satellite Brightness Start Highest point End
(mag) Time Altitude Azimuth Time Altitude Azimuth Time Altitude Azimuth
Cosmos 2278 Rocket 3.3 16:43:00 10° SW 16:48:28 50° WNW 16:54:01 10° NNE
Cosmos 1943 Rocket 2.8 16:44:00 10° SSE 16:48:57 34° ESE 16:53:58 10° NE
OAO 2 Rocket 4.3 16:44:35 10° WSW 16:49:34 41° S 16:54:30 10° ESE
Cosmos 921 Rocket 2.9 16:46:28 10° NNW 16:50:47 81° ENE 16:55:00 10° SSE
Cosmos 2208 Rocket 4.3 16:45:50 10° NNW 16:51:05 76° WSW 16:56:24 10° SSE
Okean-O 3.7 16:48:51 10° ESE 16:52:30 26° ENE 16:56:09 10° NNE
Cosmos 2369 Rocket 3.5 16:49:47 10° SE 16:53:21 17° E 16:56:55 10° ENE
Cosmos 1400 Rocket 4.0 16:51:25 10° SE 16:54:39 23° E 16:57:51 10° NE
USA 276 3.3 16:52:25 10° W 16:55:23 39° NNW 16:58:23 10° NE
CZ-3B R/B 2.9 16:46:25 10° NW 16:57:11 78° SW 17:00:29 10° SE
Cosmos 2297 4.0 16:53:06 10° S 16:58:29 47° ESE 17:03:56 10° NE
Cosmos 1486 Rocket 4.0 16:54:10 10° S 16:59:23 74° ESE 17:04:41 10° NNE
Cosmos 1356 Rocket 3.8 16:56:58 10° SSW 17:01:11 73° W 17:05:30 10° N
CZ-2C R/B 2.8 16:56:08 10° NNE 17:01:41 89° WNW 17:07:17 10° SSW
Meteor 1-21 4.3 16:58:35 10° N 17:04:10 57° ENE 17:09:40 10° SSE
OBJECT-B 2.7 17:09:58 12° E 17:10:42 13° ENE 17:12:14 10° NE
BREEZE-M DEB (TANK) 4.3 17:08:15 10° NW 17:12:40 60° NNE 17:27:57 13° ESE
COSMOS 2455 3.3 17:07:47 10° NNW 17:13:35 45° NE 17:19:18 10° SE
ATLAS 2A CENTAUR R/B 4.2 17:07:31 10° WSW 17:13:47 19° SSW 17:16:47 10° SSE
BREEZE-M DEB (TANK) 2.3 17:12:04 10° NW 17:13:58 37° NNE 17:15:12 17° E
Atlas Centaur 2 4.1 17:08:21 10° SW 17:15:25 30° SSE 17:21:31 13° ESE
Cosmos 2181 Rocket 4.1 17:10:30 10° N 17:16:42 86° W 17:22:59 10° S
USA 186 3.4 17:19:53 15° ENE 17:19:57 15° ENE 17:21:44 10° NNE
H-2A R/B 3.3 17:17:35 10° S 17:21:56 60° W 17:26:24 10° NNW
Cosmos 1707 2.7 17:20:04 10° N 17:23:57 60° E 17:27:47 10° SSE
ISS -1.5 17:23:28 10° WNW 17:26:11 22° NNW 17:28:55 10° NE
DMSP B5D2-2 4.0 17:21:23 10° NNE 17:26:41 71° ESE 17:31:56 10° S
Cosmos 1674 3.6 17:24:32 10° NNE 17:27:45 27° ENE 17:29:23 20° ESE
Okean O Rocket 3.7 17:24:00 10° SSW 17:27:52 30° W 17:31:43 10° NW
BREEZE M DEB (TANK) 4.1 17:24:46 10° WNW 17:28:30 68° N 17:45:59 15° E
Cosmos 1908 Rocket 3.6 17:25:18 10° S 17:29:41 60° E 17:34:06 10° NNE
SeaSat 1 3.3 17:28:23 17° ESE 17:31:21 32° NE 17:35:42 10° N
IRS-1C Rocket 4.0 17:28:12 10° SSE 17:33:27 85° ENE 17:38:44 10° NNW
Cosmos 2184 Rocket 4.0 17:27:19 10° S 17:33:40 81° E 17:40:00 10° N
Cosmos 1378 Rocket 3.6 17:30:13 10° N 17:34:39 88° WSW 17:39:05 10° S
H-2A R/B 4.2 17:33:53 10° SSW 17:38:05 27° W 17:42:24 10° NW
KORONAS-FOTON 4.2 17:34:57 10° N 17:38:30 38° ENE 17:40:15 24° SE
YAOGAN 1 3.4 17:38:45 10° S 17:42:58 52° W 17:47:13 10° NNW
In-Cosmos 22 4.0 17:39:19 10° N 17:44:37 87° E 17:49:55 10° S
Cosmos 1346 Rocket 3.5 17:43:14 10° N 17:46:56 34° ENE 17:47:40 31° E
Cosmos 1610 Rocket 4.4 17:40:57 10° S 17:47:08 68° E 17:53:17 10° NNE
Cosmos 1733 4.2 17:49:50 27° ENE 17:49:50 27° ENE 17:52:19 10° NNE
MetOp-A 4.0 17:43:49 10° SSE 17:49:09 78° ENE 17:54:32 10° N
Ariane Rocket 4.2 17:50:30 22° ENE 17:51:00 23° ENE 17:54:54 10° NNE
USA 215 3.3 17:46:49 21° ESE 17:51:21 72° NE 17:57:54 10° NW
Cosmos 1461 2.6 17:47:33 10° NNW 17:51:33 88° WSW 17:53:33 28° SSE
ATLAS CENTAUR R/B 1.8 17:47:01 10° NNW 17:51:41 59° NE 17:53:53 30° ESE
Cosmos 2154 Rocket 3.9 17:46:14 10° S 17:52:34 79° E 17:58:56 10° N
Cosmos 1626 2.8 17:49:41 10° N 17:52:54 34° ENE 17:52:54 34° ENE
Cosmos 1340 4.0 17:50:11 10° NNW 17:53:43 40° W 17:57:15 10° SSW
Cosmos 1238 Rocket 4.0 17:47:52 10° S 17:54:22 83° W 18:00:16 10° N
CSL-04 Rocket 3.6 17:50:37 10° SSE 17:55:56 83° ENE 18:01:23 10° NNW
SJ 16-02 1.7 17:52:19 10° S 17:56:26 40° ESE 18:00:34 10° NNE
ASTRO F (AKARI) 4.4 17:54:33 22° SSE 17:56:44 89° WSW 18:00:09 10° NNW
CZ-4B R/B 2.5 18:00:48 10° N 18:03:43 41° WNW 18:06:39 10° SW
SL-8 Rocket 4.4 18:02:42 27° SE 18:05:16 38° E 18:11:02 10° NNE
Nadezhda 3 Rocket 3.9 18:05:14 10° N 18:11:24 87° W 18:17:34 10° S
CZ-4 R/B 3.8 18:08:35 10° SW 18:11:32 21° W 18:14:30 10° NW
Cosmos 2082 Rocket 4.4 18:08:49 10° NW 18:13:16 24° W 18:17:41 10° SSW
Lacrosse 5 rocket 1.6 18:11:11 10° NW 18:15:39 55° NE 18:16:05 52° ENE
Cosmos 1782 Rocket 3.8 18:16:27 10° SSW 18:20:52 69° W 18:25:18 10° N
EO 1 Delta rocket 4.1 18:20:54 49° ENE 18:20:59 49° ENE 18:25:59 10° N
Cosmos 1315 Rocket 3.6 18:23:22 39° NNE 18:23:22 39° NNE 18:26:01 10° NNE
Okean-O 4.5 18:24:59 10° SSW 18:28:51 29° W 18:32:44 10° NW
SJ-6B 3.0 18:29:27 60° SSW 18:30:04 72° W 18:34:11 10° NNW
Helios 1A Rocket 3.4 18:32:23 51° NNE 18:32:23 51° NNE 18:35:36 10° N
Cosmos 1777 Rocket 4.3 18:26:41 10° SSW 18:31:54 67° WNW 18:37:08 10° NNE
Cosmos 1943 Rocket 3.8 18:27:38 10° WSW 18:32:39 34° WNW 18:37:44 10° N
Cosmos 158 Rocket 4.3 18:28:53 10° N 18:33:06 45° NE 18:33:06 45° NE
Cosmos 2369 Rocket 2.5 18:31:09 10° SW 18:36:46 65° WNW 18:42:24 10° NNE
Cosmos 2341 Rocket 3.9 18:33:09 10° S 18:39:28 90° E 18:45:52 10° N
SL-14 R/B 4.5 18:36:01 10° N 18:38:25 35° N 18:38:25 35° N
Meteor 1-15 Rocket 4.1 18:35:15 11° S 18:40:34 88° W 18:46:11 10° N
OBJECT-B 2.8 18:42:53 27° W 18:42:53 27° W 18:45:18 10° NW
Resurs 01 Rocket 3.1 18:46:34 28° NNE 18:46:34 28° NNE 18:48:51 10° N
Cosmos 1805 4.5 18:45:04 30° WSW 18:46:21 40° WNW 18:50:03 10° N
Cosmos 2366 rocket 3.8 18:47:01 67° E 18:47:05 67° E 18:53:11 10° NNE
Cosmos 1025 Rocket 3.7 18:43:34 10° N 18:46:45 48° N 18:46:45 48° N
Cosmos 1975 Rocket 4.0 18:47:35 10° NNW 18:51:50 46° W 18:52:26 43° WSW
Cosmos 2218 Rocket 3.8 18:53:32 76° SE 18:53:51 78° E 19:00:03 10° N
Resurs 1-3 4.3 18:57:48 50° NW 18:57:48 50° NW 19:01:14 10° NNW
COSMOS 2455 4.4 18:54:06 10° NW 18:59:17 30° WSW 19:02:30 19° SSW
Meteor 2-5 Rocket 3.7 18:54:18 10° N 18:59:12 69° N 18:59:12 69° N
ISS -0.6 19:02:08 10° NNW 19:02:48 12° NNW 19:02:48 12° NNW
Atlas Centaur 2 3.6 18:56:45 10° WSW 19:04:06 38° S 19:04:06 38° S
CZ-3 Stage 3 3.8 18:47:32 10° WSW 19:07:37 41° S 19:08:07 40° S
SeaSat 1 3.6 19:08:11 34° SW 19:08:46 35° WSW 19:13:16 10° NW
USA 281 3.1 19:15:04 10° NNE 19:21:34 82° NW 19:21:34 82° NW
Ariane Rocket 4.2 19:30:43 39° WNW 19:30:43 39° WNW 19:34:31 10° NNW
ATLAS CENTAUR R/B 4.1 19:27:03 10° WNW 19:30:02 17° WSW 19:30:02 17° WSW
USA 215 4.4 19:34:11 32° SW 19:34:39 32° SW 19:40:25 10° WNW
SJ 16-02 3.9 19:31:58 10° WSW 19:35:10 19° WNW 19:38:23 10° NNW
Lacrosse 5 rocket 4.5 19:51:09 10° WNW 19:51:42 12° WNW 19:51:42 12° WNW
Cosmos 2297 Rocket 4.4 19:56:52 10° N 19:58:27 17° N 19:58:27 17° N
